Weather History for Branson, MO

Change the Weather History Date:

Saturday, July 6, 2013

  Actual Average (KHRO) Record (KHRO)
Temperature  
Mean Temperature 78 °F 78 °F  
Max Temperature 91 °F 88 °F 103 °F (2012)
Min Temperature 64 °F 67 °F 48 °F (1972)
Degree Days  
Heating Degree Days 0 0  
Month to date heating degree days 0  
Since 1 June heating degree days 6  
Since 1 July heating degree days 0  
Cooling Degree Days 12 13  
Month to date cooling degree days 74  
Year to date cooling degree days 478  
Since 1 June cooling degree days 339  
Growing Degree Days 28 (Base 50)    
Moisture  
Dew Point 61 °F    
Average Humidity 66    
Maximum Humidity 94    
Minimum Humidity 29    
Precipitation  
Precipitation 0.00 in 0.10 in 1.56 in (1967)
Month to date precipitation 0.61  
Year to date precipitation 22.85  
Snow  
Snow 0.00 in 0.00 in - ()
Month to date snowfall 0.0  
Since 1 June snowfall 0.0  
Since 1 July snowfall 0.0  
Snow Depth -    
Sea Level Pressure  
Sea Level Pressure 30.03 in    
Wind  
Wind Speed 7 mph (SE)    
Max Wind Speed 12 mph    
Max Gust Speed -    
Visibility 10 miles    
Events      
T = Trace of Precipitation, MM = Missing Value Source: NWS Daily Summary

Daily Weather History Graph

Daily Weather History Graph

Search for Another Location

Airport:

Trip Planner

Search our weather history database for the weather conditions in past years. The results will help you decide how hot, cold, wet, or windy it might be!

Date:

Astronomy

Jul. 06, 2013 Rise Set
Actual Time 6:00 AM CDT 8:34 PM CDT
Civil Twilight 5:30 AM CDT 9:04 PM CDT
Nautical Twilight 4:53 AM CDT 9:41 PM CDT
Astronomical Twilight 4:11 AM CDT 10:23 PM CDT
Moon 4:45 AM CDT (7/6) 7:17 PM CDT (7/6)
Length of Visible Light 15h 33m
Length of Day
14h 33m
Waning Crescent, 2% of the Moon is Illuminated
Jul 6
Waning Crescent
Jul 8
New
Jul 15
First Quarter
Jul 22
Full
Jul 29
Last Quarter

Hourly Weather History & Observations

Time (CDT) Temp. Heat Index Dew Point Humidity Pressure Visibility Wind Dir Wind Speed Gust Speed Precip Events Conditions
12:15 AM 69.8 °F - 60.8 °F 73% 30.04 in 10.0 mi ESE 9.2 mph - N/A   Clear
12:35 AM 69.8 °F - 60.8 °F 73% 30.04 in 10.0 mi ESE 9.2 mph - N/A   Clear
12:55 AM 68.0 °F - 60.8 °F 78% 30.04 in 10.0 mi SE 8.1 mph - N/A   Clear
1:15 AM 68.0 °F - 60.8 °F 78% 30.04 in 10.0 mi SE 6.9 mph - N/A   Clear
1:35 AM 68.0 °F - 60.8 °F 78% 30.04 in 10.0 mi SE 6.9 mph - N/A   Clear
1:55 AM 68.0 °F - 60.8 °F 78% 30.04 in 10.0 mi ESE 6.9 mph - N/A   Clear
2:15 AM 68.0 °F - 60.8 °F 78% 30.04 in 10.0 mi SE 6.9 mph - N/A   Clear
2:35 AM 66.2 °F - 60.8 °F 83% 30.04 in 10.0 mi SE 5.8 mph - N/A   Clear
2:55 AM 66.2 °F - 60.8 °F 83% 30.04 in 10.0 mi SSE 5.8 mph - N/A   Clear
3:15 AM 68.0 °F - 59.0 °F 73% 30.03 in 10.0 mi South 4.6 mph - N/A   Clear
3:35 AM 66.2 °F - 59.0 °F 78% 30.03 in 10.0 mi SSE 5.8 mph - N/A   Clear
3:55 AM 68.0 °F - 60.8 °F 78% 30.03 in 10.0 mi SSE 4.6 mph - N/A   Clear
4:15 AM 66.2 °F - 60.8 °F 83% 30.03 in 10.0 mi SE 3.5 mph - N/A   Clear
4:35 AM 64.4 °F - 60.8 °F 88% 30.03 in 10.0 mi Calm Calm - N/A   Clear
4:55 AM 64.4 °F - 60.8 °F 88% 30.02 in 10.0 mi SE 4.6 mph - N/A   Clear
5:15 AM 64.4 °F - 60.8 °F 88% 30.03 in 10.0 mi SE 5.8 mph - N/A   Clear
5:35 AM 64.4 °F - 60.8 °F 88% 30.03 in 10.0 mi SE 5.8 mph - N/A   Clear
5:55 AM 64.4 °F - 60.8 °F 88% 30.03 in 10.0 mi SE 5.8 mph - N/A   Clear
6:15 AM 64.4 °F - 60.8 °F 88% 30.03 in 9.0 mi SSE 3.5 mph - N/A   Clear
6:35 AM 64.4 °F - 60.8 °F 88% 30.04 in 10.0 mi Calm Calm - N/A   Clear
6:46 AM 64.4 °F - 62.6 °F 94% 30.04 in 10.0 mi Calm Calm - N/A   Partly Cloudy
7:46 AM 68.0 °F - 64.4 °F 88% 30.06 in 10.0 mi ESE 5.8 mph - N/A   Scattered Clouds
8:46 AM 71.6 °F - 64.4 °F 78% 30.07 in 10.0 mi SE 4.6 mph - N/A   Partly Cloudy
9:46 AM 77.0 °F - 64.4 °F 65% 30.08 in 10.0 mi East 4.6 mph - N/A   Mostly Cloudy
10:49 AM 82.4 °F 82.9 °F 60.8 °F 48% 30.07 in 10.0 mi SE 4.6 mph - N/A   Scattered Clouds
11:52 AM 84.2 °F 83.8 °F 59.0 °F 42% 30.06 in 10.0 mi SSE 5.8 mph - N/A   Scattered Clouds
12:46 PM 86.0 °F 84.9 °F 57.2 °F 37% 30.05 in 10.0 mi South 5.8 mph - N/A   Scattered Clouds
1:46 PM 87.8 °F 86.1 °F 55.4 °F 33% 30.02 in 10.0 mi South 9.2 mph - N/A   Scattered Clouds
2:53 PM 89.6 °F 87.7 °F 55.4 °F 31% 30.00 in 10.0 mi ESE 9.2 mph - N/A   Scattered Clouds
3:45 PM 89.6 °F 87.7 °F 55.4 °F 31% 30.00 in 10.0 mi SSE 10.4 mph - N/A   Scattered Clouds
4:51 PM 91.4 °F 89.4 °F 55.4 °F 29% 29.99 in 10.0 mi SE 9.2 mph - N/A   Scattered Clouds
5:53 PM 89.6 °F 87.3 °F 53.6 °F 29% 29.98 in 10.0 mi SSE 11.5 mph - N/A   Mostly Cloudy
6:47 PM 86.0 °F 84.9 °F 57.2 °F 37% 29.99 in 10.0 mi SSE 9.2 mph - N/A   Mostly Cloudy
7:48 PM 84.2 °F 83.8 °F 59.0 °F 42% 30.00 in 10.0 mi SSE 8.1 mph - N/A   Partly Cloudy
8:47 PM 80.6 °F 81.8 °F 62.6 °F 54% 30.01 in 10.0 mi SSE 6.9 mph - N/A   Partly Cloudy
8:55 PM 78.8 °F - 62.6 °F 57% 30.01 in 10.0 mi SSE 5.8 mph - N/A   Clear
9:15 PM 78.8 °F - 62.6 °F 57% 30.01 in 10.0 mi SE 6.9 mph - N/A   Clear
9:35 PM 77.0 °F - 62.6 °F 61% 30.02 in 10.0 mi SE 6.9 mph - N/A   Clear
9:55 PM 77.0 °F - 62.6 °F 61% 30.03 in 10.0 mi SE 6.9 mph - N/A   Clear
10:15 PM 75.2 °F - 62.6 °F 65% 30.03 in 10.0 mi SE 6.9 mph - N/A   Clear
10:35 PM 75.2 °F - 62.6 °F 65% 30.04 in 10.0 mi SSE 6.9 mph - N/A   Clear
10:55 PM 77.0 °F - 62.6 °F 61% 30.04 in 10.0 mi SSE 5.8 mph - N/A   Clear
11:15 PM 75.2 °F - 62.6 °F 65% 30.04 in 10.0 mi SSE 5.8 mph - N/A   Clear
11:35 PM 75.2 °F - 62.6 °F 65% 30.04 in 10.0 mi SSE 6.9 mph - N/A   Clear
11:55 PM 75.2 °F - 60.8 °F 61% 30.04 in 10.0 mi South 6.9 mph - N/A   Clear